Wind_Speed
1 1 1 1 2 6 6 5 4 3 3 3 3 2 4 1 2 2 4 3 1 3 1 2 0 1 1 2 3 4 4 4 5 4 3 4 2 5 7 9 14 15 15 14 16 16 15 15 16 16 16 15 14 15 16 17 17 18 17 18 17 17 17 17 18 18 18 18 17 17 16 15 14 12 11 14 14 13 12 12 13 15 15 14 15 14 15 16 16 16 16 16 16 17 16 15 14
3 2 1 2 4 6 3 3 5 4 4 4 4 1 3 2 3 3 2 2 2 3 1 1 1 2 1 3 4 4 2 7 6 3 5 5 5 6 7 12 14 14 14 12 14 15 15 15 15 16 16 15 15 15 15 15 15 17 17 18 17 17 16 16 17 17 17 17 17 17 16 15 13 12 13 14 13 11 12 13 14 15 15 15 15 15 15 15 15 16 15 15 15 15 14 14 12
3 2 3 4 6 6 3 4 5 3 5 3 4 2 2 2 1 1 1 4 3 2 0 1 1 1 3 4 4 4 2 7 7 5 5 5 6 8 8 12 13 12 13 11 12 12 13 15 15 15 16 16 16 15 14 15 14 15 15 16 18 17 17 16 15 16 17 17 17 16 16 14 12 12 15 14 12 12 12 13 14 15 15 15 15 14 15 14 14 15 14 14 14 13 13 12 10
1 3 5 6 5 5 4 5 3 3 3 2 3 4 1 1 3 2 3 3 2 1 1 1 1 0 4 4 4 4 3 6 7 5 4 4 4 8 10 12 12 11 11 11 11 10 11 14 14 15 16 16 16 15 14 15 15 14 14 14 16 16 16 16 16 16 17 17 17 16 15 12 12 14 15 14 12 12 12 12 13 14 14 15 14 14 14 14 14 14 13 13 12 12 12 9 7
2 4 5 7 5 1 3 3 2 4 1 0 2 5 2 4 5 3 3 2 2 2 1 1 1 1 3 4 4 3 2 3 6 7 4 5 5 7 9 10 12 11 10 10 10 9 10 13 13 14 15 15 15 15 14 14 14 14 14 14 15 15 15 15 16 16 17 17 17 16 13 12 14 15 15 14 13 13 13 12 12 13 13 13 13 13 13 13 14 13 12 11 10 10 10 7 5
5 5 5 7 5 2 4 3 3 3 2 1 1 4 3 6 5 3 3 2 3 2 0 1 2 2 3 1 4 4 4 1 3 5 4 6 6 7 8 9 10 10 10 9 9 8 9 12 13 13 14 14 14 14 13 13 13 13 13 14 14 14 14 15 16 16 17 16 16 14 12 14 15 14 14 14 14 13 13 12 12 12 11 11 11 11 12 13 13 11 11 10 8 8 7 6 4
5 5 5 6 3 2 6 3 2 2 3 1 3 3 3 5 4 2 2 2 2 2 1 1 2 5 3 3 4 6 5 3 2 2 3 6 7 9 9 8 9 10 9 9 7 7 10 13 13 12 13 13 14 13 13 13 13 13 13 14 13 14 14 15 15 16 17 15 14 12 13 16 16 14 15 14 14 13 13 12 12 11 11 11 11 10 10 11 11 10 10 8 7 6 5 5 4
5 5 2 4 4 4 6 2 1 1 3 1 3 2 4 5 4 0 2 1 1 1 2 2 3 6 1 1 1 5 5 5 4 3 5 7 9 10 9 8 10 11 9 8 7 8 11 13 12 11 12 12 13 13 13 13 13 13 13 13 13 14 14 14 15 16 16 14 13 13 16 16 15 15 15 14 14 13 12 11 11 11 11 11 11 10 10 10 10 10 9 8 6 5 5 5 4
6 5 2 5 5 4 5 2 2 0 2 2 2 2 3 4 4 2 2 1 1 2 2 2 4 6 1 2 0 7 5 5 5 6 7 8 9 9 9 9 10 11 9 9 8 9 11 12 12 12 12 12 13 13 12 12 12 12 12 12 12 13 14 15 15 15 14 13 13 16 17 15 14 15 15 15 14 13 12 11 10 10 10 9 10 10 11 10 10 10 9 8 6 5 5 4 4
6 5 3 4 4 4 5 3 2 2 2 2 3 3 3 4 3 2 4 2 2 4 3 3 5 6 5 5 1 5 4 6 6 6 8 8 9 9 9 9 10 12 11 10 10 9 11 13 14 14 14 14 13 13 13 13 12 12 11 11 12 13 14 14 14 13 12 13 16 17 15 14 14 14 14 15 14 13 12 11 10 10 9 8 8 10 11 11 11 11 9 7 6 6 5 4 5
5 3 4 4 4 5 3 2 2 2 2 3 3 3 3 3 4 4 4 4 4 6 3 2 5 5 7 6 1 5 4 5 6 7 9 9 10 10 10 9 10 12 13 12 11 10 12 15 16 16 16 16 15 13 13 13 12 12 11 11 11 12 12 11 11 11 12 15 17 15 14 13 13 13 13 14 13 13 12 11 10 9 8 7 8 10 11 11 11 11 8 7 7 7 4 5 6
5 4 4 5 4 3 1 1 1 1 2 3 3 0 1 3 4 4 5 5 4 7 5 3 3 3 7 5 2 6 6 5 6 8 9 10 10 10 11 10 10 12 13 13 12 12 13 15 15 15 17 16 16 14 13 13 12 11 11 12 12 12 13 12 11 11 13 16 15 14 14 13 13 13 13 13 13 12 11 11 10 9 8 7 8 10 11 10 10 9 9 9 8 6 4 5 5
4 3 5 4 2 2 1 2 1 2 3 1 1 2 2 4 5 6 6 6 6 7 5 1 2 4 9 4 4 6 6 6 7 8 10 10 10 11 11 11 11 12 13 13 12 13 13 13 13 14 16 15 15 14 13 12 12 12 11 12 12 13 13 13 12 12 14 14 12 13 13 12 12 12 12 12 12 11 11 11 11 9 8 7 9 10 10 10 9 9 10 9 8 6 5 5 5
3 2 4 2 1 3 3 3 1 3 1 4 3 3 3 5 4 6 6 8 6 4 3 2 3 6 7 4 3 4 5 7 8 8 10 10 10 11 12 11 12 12 13 13 12 12 13 12 12 14 15 15 15 15 15 13 12 12 12 12 12 13 12 12 11 12 13 12 12 13 12 11 11 11 11 11 11 11 10 10 10 9 8 8 8 10 10 10 9 9 9 9 8 6 4 4 5
3 2 4 3 3 3 3 3 2 3 2 6 5 6 7 6 4 7 6 9 4 4 3 1 3 4 3 3 1 4 5 8 8 8 9 10 11 11 11 11 12 12 13 12 11 12 13 13 11 12 13 15 16 16 15 13 12 12 12 13 13 12 11 11 12 13 13 12 12 12 11 10 10 10 10 10 11 12 10 9 9 9 9 8 8 9 9 9 9 9 8 7 7 6 4 4 4
3 2 4 4 2 2 1 2 3 3 2 5 5 6 9 6 4 7 4 6 5 2 3 3 3 4 5 3 4 6 6 7 8 8 9 11 11 11 11 11 11 11 12 12 11 13 13 13 12 12 12 15 16 15 13 11 11 12 13 14 13 12 11 11 13 13 13 12 11 12 11 10 10 9 9 10 12 12 11 9 9 9 9 9 8 8 8 8 8 8 7 7 7 5 4 3 3
3 4 4 3 2 2 1 2 2 3 5 5 4 4 9 6 2 4 1 5 8 4 5 4 3 3 3 4 5 5 7 7 8 9 10 11 11 11 11 12 12 12 13 12 11 13 13 13 13 12 13 14 15 15 13 11 12 12 13 14 12 12 12 12 13 13 13 12 12 12 11 10 10 9 10 11 12 12 10 8 9 10 10 9 8 7 7 6 7 8 7 7 7 6 5 3 3
4 4 3 3 2 1 2 3 4 5 6 6 6 5 8 8 4 2 2 7 8 7 7 6 5 3 3 5 5 5 8 8 8 10 10 11 10 10 11 12 13 12 12 12 12 13 13 14 14 13 13 14 15 15 14 13 14 13 13 12 12 12 13 13 13 14 13 13 12 11 11 10 10 10 11 11 11 11 10 8 9 11 10 9 8 7 6 5 6 7 8 9 8 7 6 3 2
5 4 3 3 1 2 3 5 6 6 7 8 8 7 7 8 6 1 4 9 7 8 8 7 7 6 6 5 6 8 9 8 9 11 10 10 11 11 12 12 12 13 12 12 13 14 14 15 15 14 14 15 16 15 14 13 14 14 12 12 13 13 14 14 14 14 13 12 11 10 9 9 10 10 11 10 10 10 9 8 8 9 10 9 8 6 4 4 6 8 8 8 8 8 6 4 3
4 3 5 2 3 5 5 6 7 7 8 10 10 8 8 8 6 4 6 10 9 10 7 5 7 6 9 8 9 10 9 9 9 10 10 11 11 12 13 13 13 13 13 12 13 14 15 16 15 14 14 15 14 13 12 12 13 13 11 12 13 12 14 15 14 13 12 11 10 9 8 9 10 9 10 9 9 9 8 7 7 7 8 8 7 5 3 3 5 7 7 5 7 8 7 6 4
2 3 6 5 6 7 6 6 6 7 8 10 11 9 10 8 6 7 7 9 9 8 5 4 7 2 10 11 10 11 10 9 9 10 11 11 12 11 12 12 12 12 13 13 14 15 15 17 16 15 15 14 13 12 12 12 13 13 12 12 12 11 12 11 10 10 10 10 9 8 8 9 9 8 9 8 7 8 7 7 7 7 8 8 7 5 4 3 4 6 6 5 6 7 7 6 4
4 5 6 7 8 7 7 8 7 7 8 9 11 11 10 7 6 9 9 9 7 5 4 3 5 1 10 12 11 12 11 10 10 11 11 11 11 11 11 11 11 12 12 13 15 16 16 16 16 15 15 14 14 13 13 13 13 12 12 12 11 11 11 9 8 9 9 10 8 8 8 9 8 7 8 7 6 6 6 6 7 8 8 8 7 5 4 4 4 5 5 5 6 6 7 7 6
5 6 5 6 7 8 9 9 7 6 8 9 10 10 9 8 9 9 10 13 7 2 3 1 1 2 10 12 12 12 11 11 11 11 11 11 12 12 12 12 12 13 13 13 14 16 17 18 17 15 15 14 14 13 12 13 13 12 12 13 13 12 11 10 9 9 9 9 8 8 8 8 7 7 7 7 6 6 6 6 6 7 7 7 7 5 5 5 4 4 4 5 5 6 7 7 7
7 6 5 7 7 9 10 10 9 7 10 11 10 10 10 12 11 8 11 15 9 4 4 3 4 6 10 11 11 11 11 11 10 11 11 11 13 13 12 13 13 13 13 14 13 14 16 18 16 14 14 13 13 13 12 13 13 12 13 15 16 15 13 12 10 9 9 9 8 8 8 8 8 7 7 7 6 6 5 5 6 7 7 7 7 7 6 5 4 4 4 5 6 6 7 7 7
7 7 7 8 9 10 11 10 11 9 9 9 9 12 13 12 9 9 13 14 10 7 6 7 8 8 10 10 11 10 10 10 10 11 11 11 12 12 12 13 13 13 14 14 14 13 15 16 15 13 12 12 12 13 13 13 13 13 15 16 15 16 15 13 12 11 10 9 9 8 8 7 7 7 7 6 6 6 6 5 6 6 7 7 8 7 6 6 5 4 5 5 5 6 6 7 6
1 8 10 11 12 12 11 11 10 7 6 6 8 12 12 7 5 10 16 15 10 9 8 8 9 9 9 10 10 10 10 11 11 11 11 11 11 13 13 13 13 14 15 14 14 13 14 14 14 13 12 11 11 12 13 14 13 13 15 16 14 14 14 12 13 12 9 9 9 9 8 8 7 6 6 5 5 5 5 5 5 6 7 7 7 7 6 6 5 5 4 4 4 5 5 5 5
5 10 11 13 14 11 10 9 7 6 4 4 8 11 8 3 3 9 9 7 8 10 10 9 9 9 10 9 10 10 10 11 11 11 11 11 12 13 14 14 15 15 15 15 14 13 14 15 14 14 13 12 12 13 13 13 13 13 14 15 14 14 13 12 12 11 9 9 8 8 8 7 7 6 6 5 4 4 4 4 5 6 7 7 8 7 7 6 6 5 4 3 3 3 3 3 4
7 11 13 13 12 10 8 6 5 5 1 2 8 10 7 5 7 11 4 2 8 10 10 11 10 9 9 10 10 9 9 11 12 11 12 12 13 13 14 15 15 15 16 16 15 13 14 14 14 14 14 14 13 13 12 11 12 13 13 14 14 14 12 11 11 10 8 7 7 7 7 6 6 6 6 5 4 4 4 4 5 5 6 7 8 7 7 6 6 5 4 3 3 2 2 3 4
10 10 11 12 12 9 5 1 3 4 2 2 7 9 8 10 11 10 3 4 7 8 10 10 10 9 9 9 9 8 9 12 12 12 13 13 13 13 14 15 15 15 15 16 16 14 14 14 14 14 14 15 13 12 11 10 11 12 13 14 13 13 11 10 10 9 9 8 7 7 6 6 6 5 5 5 5 4 4 4 4 5 6 7 7 8 7 7 6 5 4 4 3 3 3 3 4
9 9 8 9 11 5 5 2 3 3 1 3 6 7 4 9 10 5 5 6 7 8 9 9 10 9 8 9 9 9 11 12 12 12 13 13 13 14 15 15 15 15 14 15 17 16 14 13 13 13 13 14 13 12 10 11 12 12 13 13 11 12 11 9 9 9 9 8 7 7 6 6 6 5 5 5 5 5 5 4 4 5 6 6 7 8 8 7 7 5 5 4 4 4 4 4 4
8 9 7 6 7 2 6 2 3 3 2 1 7 7 5 1 5 7 5 6 7 7 8 9 9 9 8 8 9 9 11 12 13 14 13 13 13 14 15 16 16 16 14 14 16 16 15 13 13 12 13 14 13 12 10 10 11 11 11 11 10 10 10 9 8 8 9 8 6 6 6 6 6 5 5 5 6 5 5 5 5 5 6 6 7 7 7 7 7 6 5 5 4 5 5 5 5
6 7 7 5 5 4 2 4 1 4 1 1 6 6 8 6 5 7 4 5 7 7 7 8 9 9 9 9 9 9 9 11 13 14 14 14 14 14 15 16 16 16 15 13 15 16 15 14 14 12 13 13 11 11 11 9 9 9 9 10 9 9 8 7 7 7 8 7 6 6 6 6 5 6 6 6 6 5 6 6 6 6 6 6 6 7 7 8 7 7 6 6 5 5 5 6 5
5 5 7 6 5 6 3 4 4 2 4 3 6 6 9 7 1 6 5 4 7 7 7 8 9 9 10 9 8 8 8 10 12 14 16 15 15 15 15 16 16 16 16 14 14 16 16 15 15 13 12 12 11 11 11 10 10 10 9 9 8 7 6 6 6 6 7 7 6 6 7 6 6 6 6 6 6 6 6 6 7 7 7 6 6 7 7 8 7 8 7 7 7 6 6 6 5
4 4 5 7 7 7 6 2 6 1 7 8 8 9 10 12 7 5 7 5 6 7 7 8 8 9 9 9 9 9 9 10 10 13 17 16 15 16 15 16 16 16 16 15 14 15 16 16 15 13 11 11 12 13 12 10 11 11 10 9 7 6 6 6 6 6 6 6 6 7 7 7 7 7 7 7 7 7 7 7 7 8 8 7 7 7 8 8 8 8 8 8 7 7 7 5 7
6 5 6 7 7 8 9 5 1 2 10 11 11 11 10 14 11 3 6 6 7 7 7 7 8 9 10 10 9 10 10 10 11 13 17 17 16 17 16 15 16 16 16 15 15 14 15 16 15 12 12 13 14 14 11 11 11 11 11 10 8 6 6 6 6 6 6 6 7 7 7 7 6 7 8 8 8 8 8 8 8 9 9 8 8 8 9 9 8 8 8 8 7 7 6 5 8
10 9 9 9 9 9 11 10 4 4 10 11 11 11 10 13 12 4 4 6 7 7 7 7 7 8 9 10 10 10 11 10 11 14 17 18 17 17 16 15 16 16 16 15 15 15 15 16 14 12 14 16 15 13 11 12 13 11 11 10 9 8 7 6 5 6 6 6 6 6 7 7 6 7 9 9 9 8 8 9 9 9 9 9 9 9 9 9 9 9 8 8 7 7 7 5 7
11 11 10 10 11 10 11 12 3 3 7 11 10 10 11 13 14 10 3 5 8 7 8 8 8 8 8 10 11 11 11 10 10 13 16 17 17 17 17 16 16 17 16 16 16 16 16 16 15 14 16 16 14 13 12 14 15 13 12 11 10 9 8 7 6 6 5 5 6 6 6 6 6 7 9 9 9 9 8 9 10 10 10 10 10 10 9 9 9 8 7 8 8 8 7 5 5
11 11 10 10 10 9 12 12 3 2 5 10 11 12 13 13 14 11 5 6 9 7 9 9 9 9 8 10 12 11 10 9 10 12 14 16 17 18 17 16 17 17 17 17 17 17 16 15 15 16 17 17 14 14 14 15 15 14 13 12 10 9 8 7 6 6 5 5 7 7 6 6 7 7 8 9 9 9 9 9 10 10 10 10 9 9 9 9 9 9 8 8 8 8 8 6 6
11 9 9 9 9 10 12 9 2 2 4 8 12 12 13 13 13 13 10 9 8 6 8 9 8 9 9 10 11 11 11 11 12 12 14 16 17 18 17 16 17 17 18 18 18 17 16 16 16 15 16 17 16 16 16 16 15 15 13 11 9 9 8 6 6 6 7 7 7 7 7 7 7 7 8 8 9 9 9 9 9 10 10 10 10 10 10 10 9 9 9 9 8 7 7 7 7
10 9 9 9 9 9 8 4 5 3 7 9 12 11 11 13 12 14 12 8 6 5 7 8 8 10 10 10 10 10 12 12 13 13 13 15 17 18 18 17 18 17 18 19 19 19 18 18 17 17 18 18 16 17 18 15 15 16 13 12 11 9 8 6 6 6 7 7 7 8 8 8 8 8 8 8 9 9 10 10 10 10 10 10 10 10 10 10 10 10 10 10 9 8 8 8 8
9 11 11 10 10 11 10 7 5 10 11 8 8 10 8 10 10 10 7 4 5 5 7 8 9 10 10 11 11 11 12 13 13 14 14 14 16 18 18 18 18 19 19 20 21 21 20 19 19 19 19 19 17 17 18 16 16 16 14 13 12 9 8 7 8 8 8 8 9 9 10 10 9 9 9 9 9 9 10 11 11 10 11 10 10 9 9 10 10 10 11 11 12 10 9 8 8
9 10 11 12 13 13 13 11 8 9 8 3 3 9 7 6 7 7 5 5 7 6 6 9 9 10 11 11 12 12 12 13 13 14 14 15 16 18 18 19 19 19 20 20 21 22 21 20 20 19 19 19 18 18 18 18 18 17 16 15 13 11 10 10 12 11 11 10 10 10 10 10 10 10 10 11 10 10 10 11 11 11 11 10 10 9 9 9 10 10 10 11 12 11 9 7 7
8 7 7 10 12 12 12 11 8 8 8 2 4 9 8 7 8 9 8 9 10 8 9 11 9 9 11 11 12 12 12 12 13 13 14 15 17 18 18 20 21 20 20 20 20 21 21 21 21 21 20 19 19 20 20 19 19 19 17 16 15 14 13 13 13 12 10 10 9 10 10 10 11 11 11 12 12 11 11 11 12 11 11 11 11 10 10 10 10 10 10 10 10 10 9 7 7
7 3 4 9 10 10 10 10 9 8 9 8 7 8 9 9 9 10 10 10 12 12 12 12 10 10 12 12 12 12 13 13 13 13 15 16 17 19 20 21 22 20 21 21 20 21 22 22 22 22 21 20 20 20 21 20 20 19 18 17 16 15 15 14 13 11 9 8 9 10 10 10 11 12 12 12 12 12 11 11 12 12 12 12 12 12 11 11 10 9 9 9 9 9 9 8 6
8 4 5 8 9 10 11 10 9 9 9 9 9 8 8 9 8 8 8 9 12 12 12 12 10 10 11 12 12 12 12 13 14 14 15 16 18 20 21 22 21 21 22 23 22 22 22 23 23 23 21 21 21 21 22 21 19 18 17 17 16 15 15 13 11 9 7 8 9 10 10 10 11 12 13 14 13 13 13 12 12 12 12 12 12 12 11 11 11 10 9 9 9 9 9 8 6
7 6 7 9 9 11 11 9 9 10 9 9 11 11 9 9 9 7 5 6 8 9 8 7 6 6 6 8 9 10 11 11 13 14 15 16 19 20 20 20 21 22 22 23 22 22 23 23 24 24 23 21 22 23 23 22 20 18 18 17 16 15 14 12 11 10 10 9 10 11 11 11 11 12 13 13 13 13 14 14 13 13 13 13 13 12 11 12 11 11 10 10 11 10 9 9 7
7 6 9 10 10 10 9 8 8 10 10 12 16 15 11 9 7 6 3 2 5 8 7 5 4 5 3 4 6 8 9 10 11 13 13 15 18 19 19 20 21 21 21 23 23 23 24 24 24 25 25 23 22 23 24 24 22 20 18 18 18 17 16 14 13 13 13 12 12 13 12 11 11 11 11 12 14 14 14 14 13 13 13 13 13 12 12 12 12 12 11 11 12 11 9 9 8
9 8 9 9 8 9 8 8 7 8 9 11 13 12 11 10 7 5 4 3 5 7 8 8 8 8 6 2 4 5 7 9 10 11 12 13 15 17 19 20 21 22 22 23 23 23 24 24 25 26 26 25 23 24 24 23 23 21 19 18 19 19 18 17 16 15 15 15 15 14 13 12 11 11 12 12 14 14 14 14 14 14 14 14 14 13 12 13 12 12 12 12 11 11 10 9 8
8 7 7 7 7 7 7 8 7 8 9 7 4 5 8 9 8 9 9 9 9 7 7 9 10 11 11 6 3 3 5 7 9 11 12 13 13 15 18 20 22 22 23 24 24 24 24 24 26 27 27 26 25 25 26 25 25 24 22 20 19 20 19 18 17 16 16 15 14 13 13 13 13 13 14 13 14 14 14 14 14 15 15 15 14 13 12 12 12 11 11 12 11 11 11 10 8
7 6 6 7 7 7 8 8 7 8 10 4 2 2 7 8 7 8 10 10 7 5 5 8 10 12 13 8 4 4 5 6 8 10 12 13 14 15 18 21 22 22 23 25 25 25 24 24 26 27 27 27 26 26 26 27 27 25 23 21 20 20 20 20 18 16 15 14 12 12 13 14 14 15 15 14 14 15 15 15 15 15 15 14 14 13 12 12 12 10 10 11 11 10 10 10 9
6 5 6 8 7 8 8 8 8 9 9 4 3 2 6 5 2 1 3 5 4 5 6 8 9 10 10 8 7 6 6 7 8 10 12 14 14 16 19 21 21 21 23 25 25 25 25 25 26 27 27 27 27 26 26 26 26 25 24 22 21 20 21 21 19 16 15 14 12 13 13 14 14 14 15 16 16 16 16 16 15 15 14 14 14 13 12 12 12 11 10 10 11 10 10 10 9
4 3 6 7 6 7 7 8 9 8 9 7 4 5 6 6 5 5 6 6 5 7 7 7 9 10 11 12 11 9 7 7 7 9 12 13 14 16 19 21 21 21 22 24 24 26 26 25 27 28 28 28 28 26 26 25 25 24 24 23 22 21 20 19 18 16 14 14 14 14 13 13 13 13 13 14 15 16 16 15 15 15 14 14 14 14 13 13 13 12 11 11 11 11 11 11 10
2 4 7 5 4 5 7 9 7 5 8 8 6 8 8 8 9 8 7 4 6 10 12 13 14 14 13 13 13 12 9 7 7 8 10 11 13 16 18 20 21 22 23 24 25 26 27 26 27 28 27 27 27 27 26 25 24 23 24 24 23 21 20 19 17 16 15 15 15 14 13 12 13 13 12 13 15 15 15 15 15 15 14 14 14 13 13 13 13 13 13 13 13 12 11 11 11
6 6 5 5 3 4 5 7 6 7 10 8 8 12 9 8 6 0 4 7 11 13 13 14 14 15 14 14 14 15 13 10 9 8 8 9 11 14 18 20 22 23 24 25 25 25 26 26 27 28 28 27 28 28 26 25 25 24 23 24 23 21 20 19 18 17 16 15 15 14 13 13 14 14 13 14 14 15 15 15 15 14 15 15 14 14 13 13 13 13 12 12 13 12 12 12 12
6 6 5 4 7 6 5 6 7 10 11 8 11 13 10 8 5 4 8 9 11 12 12 13 15 15 15 15 16 17 16 13 10 7 6 7 8 12 16 18 21 22 23 24 25 24 24 25 26 28 29 29 28 27 26 25 24 23 23 23 23 21 20 19 19 18 17 16 16 15 14 14 15 15 15 14 14 15 16 15 15 14 14 15 15 15 15 14 14 13 12 12 12 13 13 14 15
5 6 5 4 5 6 6 7 7 10 11 9 11 13 9 5 1 5 6 8 9 10 11 12 13 14 15 15 15 17 17 14 12 10 6 5 7 10 13 16 18 20 21 22 23 23 23 24 24 25 26 26 26 25 25 25 24 23 22 22 22 21 20 20 19 18 18 17 17 15 15 15 16 15 16 16 16 15 15 15 15 14 14 14 15 15 16 16 15 14 13 13 13 14 15 16 16
4 6 6 5 4 6 7 7 8 9 10 9 9 10 7 1 4 4 4 5 7 8 10 10 12 14 15 15 15 15 15 15 13 11 9 5 5 8 11 14 16 17 19 20 21 22 23 23 24 25 25 25 25 25 25 25 25 24 23 22 21 21 21 20 19 18 18 17 16 16 16 16 17 17 16 16 17 16 16 16 16 15 15 15 15 15 15 15 15 14 14 14 14 15 17 16 15
8 8 8 7 6 7 8 9 9 8 8 9 8 11 6 3 4 3 4 3 5 8 9 10 11 14 15 15 16 15 15 15 14 12 11 7 4 6 9 12 14 16 17 20 20 21 22 22 23 24 25 25 25 25 25 25 24 24 24 23 22 21 21 20 19 19 19 18 17 17 17 17 19 19 18 17 18 17 16 16 16 16 16 16 15 15 15 15 15 15 16 15 15 16 16 16 15
Wind_Direction
287 265 304 323 244 250 239 241 242 182 233 209 179 212 139 149 310 258 190 163 188 116 352 335 30 195 195 340 351 331 343 4 353 316 13 74 149 152 151 147 148 153 152 150 151 154 153 159 163 162 158 157 158 157 155 158 161 162 163 159 156 156 156 157 156 158 158 157 153 152 150 147 146 143 138 128 123 128 133 137 135 130 129 128 127 126 125 124 123 123 118 115 115 117 115 106 99
303 277 297 271 224 248 245 253 257 174 214 196 164 215 94 143 214 219 191 107 63 64 4 240 200 199 263 320 320 291 354 51 57 52 70 111 155 149 148 147 150 153 151 149 151 154 154 159 164 166 162 159 160 158 158 159 161 163 166 166 162 158 156 156 157 159 159 158 155 153 150 148 147 144 139 130 127 134 137 135 132 128 129 128 128 128 125 124 124 124 119 116 118 119 113 107 103
287 263 236 237 217 240 252 237 252 193 212 186 141 115 82 217 184 159 92 57 69 60 134 155 201 210 263 267 299 298 46 61 65 71 99 131 143 151 153 144 151 154 149 149 151 153 154 159 165 169 165 164 162 161 163 160 160 160 163 168 166 162 156 155 157 158 159 158 155 153 150 149 147 144 139 132 133 137 135 131 130 129 130 131 131 130 128 126 125 124 121 119 120 119 115 115 109
251 252 244 247 227 228 242 238 254 241 217 171 131 111 92 343 37 50 77 61 100 153 112 160 221 85 283 287 333 322 42 63 54 43 101 108 108 146 152 145 150 153 150 150 151 151 154 159 164 170 167 166 164 163 164 160 160 159 160 161 160 159 156 156 158 158 159 157 155 152 150 150 147 144 137 133 136 134 130 127 128 131 134 135 134 134 132 129 127 125 124 121 119 121 122 124 109
228 241 248 260 262 254 260 258 246 246 235 126 119 100 66 31 39 47 80 88 138 177 109 220 261 83 264 299 337 327 35 71 71 40 74 100 102 139 147 145 147 152 153 149 149 149 154 159 163 170 168 165 163 163 163 163 163 161 160 157 155 158 159 159 158 158 157 155 154 153 152 150 147 141 136 136 136 132 129 128 129 131 134 134 136 137 136 132 129 128 126 124 123 125 126 125 107
222 220 224 252 283 334 267 234 206 235 54 324 326 82 55 40 41 54 90 129 157 216 315 244 279 285 252 72 38 38 30 355 98 47 60 110 130 148 148 147 147 150 148 143 145 144 153 160 164 168 166 164 161 164 167 167 167 163 162 160 159 160 162 162 160 158 154 152 153 153 154 151 147 140 138 138 136 133 132 131 129 131 133 133 135 137 139 136 133 130 128 128 130 131 130 129 112
229 222 208 230 238 249 256 238 225 226 97 265 306 39 29 32 29 65 135 167 190 215 244 266 295 282 264 115 78 66 53 31 85 63 78 116 139 152 153 159 153 146 141 137 141 142 155 161 162 163 161 161 162 167 168 169 169 166 165 164 163 163 164 164 161 157 153 152 155 156 155 151 146 143 143 140 137 135 131 130 131 133 135 133 135 138 139 140 138 134 134 135 133 135 134 132 112
232 239 236 245 223 207 249 238 231 276 112 200 291 325 346 3 359 326 181 169 222 216 240 277 290 278 290 83 345 90 85 64 84 107 118 129 141 149 148 161 157 145 138 136 144 149 156 158 157 158 158 161 165 169 169 171 172 171 171 167 168 166 163 163 160 157 154 155 158 157 153 150 147 147 146 143 139 133 131 132 133 134 135 136 141 145 145 147 147 143 142 139 137 145 134 115 92
217 231 233 247 234 202 240 224 170 213 147 202 244 271 318 329 330 302 256 236 264 289 285 307 285 279 337 323 36 117 106 91 110 120 139 142 141 150 143 157 158 144 142 145 149 146 148 151 154 159 162 167 171 173 171 172 174 175 174 170 171 168 164 164 163 159 154 156 157 153 152 150 150 152 149 145 138 134 134 133 134 134 136 138 141 147 150 150 151 152 149 147 150 143 122 97 67
207 227 239 239 234 212 216 203 165 162 195 258 275 286 309 316 309 283 272 279 304 301 309 310 273 280 300 297 98 120 103 116 137 129 149 152 144 150 142 152 156 145 151 156 148 138 144 154 163 166 168 171 174 176 173 174 177 179 177 172 171 169 168 166 163 155 149 154 152 151 153 153 153 155 150 144 139 138 138 135 134 133 132 132 133 139 145 149 155 159 154 154 150 125 109 78 45
205 203 255 241 218 222 209 188 172 170 211 280 288 282 299 304 282 263 270 276 286 294 303 297 280 289 285 281 86 110 114 145 159 144 153 156 147 147 145 147 149 149 157 160 148 139 150 164 171 170 172 174 175 177 174 176 178 181 181 176 173 170 171 166 157 148 150 156 153 153 156 156 156 155 149 144 142 142 139 136 132 130 126 127 135 136 143 153 160 163 160 157 141 119 98 59 37
221 175 227 236 218 227 246 236 182 253 235 254 269 244 300 266 261 261 266 270 280 291 286 273 304 310 281 283 91 119 140 161 157 153 156 154 152 149 147 145 147 154 161 165 154 147 155 167 174 173 178 179 176 175 173 178 180 184 186 182 180 174 173 170 162 158 160 161 157 158 158 159 158 153 151 149 145 142 141 139 132 129 124 121 131 135 145 153 157 162 161 154 138 118 87 55 37
238 188 221 233 245 262 252 248 181 255 236 196 306 38 336 261 260 273 278 283 277 284 297 301 308 277 280 302 107 128 144 155 152 158 158 155 154 150 148 147 150 155 163 168 160 155 160 168 172 175 182 182 177 174 173 179 184 187 188 185 184 178 174 174 170 164 162 161 157 156 159 160 156 153 153 152 150 146 143 140 132 128 123 115 120 131 144 151 157 162 156 145 132 118 89 57 40
241 205 247 243 207 250 253 252 194 239 250 68 11 360 297 265 276 286 283 280 272 293 12 55 285 270 281 297 133 124 132 149 159 160 157 155 150 149 151 152 153 157 166 168 162 160 167 172 173 176 181 182 179 178 177 178 185 189 189 185 182 179 175 174 167 156 157 160 155 152 157 157 153 151 150 152 153 148 142 138 131 128 124 112 114 129 143 151 156 156 146 137 130 122 97 60 45
256 208 260 262 213 233 225 266 311 273 354 52 13 344 296 276 277 279 276 278 310 48 46 123 243 271 314 318 40 82 116 147 161 162 160 156 148 148 151 156 157 159 169 170 165 166 174 178 176 176 176 181 182 184 180 176 185 187 190 186 177 176 174 172 161 153 156 158 154 152 156 156 153 150 149 150 151 148 143 138 132 130 128 119 118 126 139 150 156 152 144 141 136 131 110 71 50
258 252 251 259 239 247 184 267 296 267 2 35 10 340 297 284 253 273 303 285 301 73 242 238 202 272 333 13 61 87 124 148 161 166 163 156 148 146 146 157 158 158 171 172 171 173 179 182 180 177 174 181 182 183 178 174 188 187 190 187 174 173 171 167 157 154 156 155 154 154 158 159 159 157 153 151 151 150 145 141 138 136 133 128 127 128 136 147 156 160 160 159 150 146 128 88 68
242 249 245 254 238 249 310 277 284 312 346 346 335 331 299 300 237 254 323 258 267 252 237 245 194 248 333 67 88 112 142 149 163 169 167 162 153 150 149 157 159 159 168 175 179 177 180 185 183 179 177 183 181 179 173 176 189 184 188 185 171 172 168 161 157 156 156 155 154 154 160 161 163 161 153 153 150 148 148 147 144 142 139 137 138 136 139 143 155 168 174 174 168 164 149 107 87
231 239 242 252 240 264 353 312 310 319 309 304 315 321 301 300 282 207 229 245 251 252 237 233 223 193 124 102 112 139 155 161 172 178 177 173 166 163 162 164 166 162 164 177 186 181 183 186 185 182 181 183 181 178 172 178 188 183 185 179 170 175 165 158 160 159 158 158 154 155 163 164 166 159 152 153 147 147 148 142 143 148 147 145 147 149 150 154 162 170 177 182 182 177 166 158 129
241 261 264 246 288 343 325 295 291 289 290 303 307 300 293 293 299 256 258 269 253 256 251 224 229 199 154 136 144 153 167 175 183 190 190 187 184 177 173 170 169 165 166 179 186 184 186 188 187 184 184 184 179 175 172 178 185 184 186 178 176 179 168 163 165 162 160 161 157 157 164 167 164 154 152 151 144 147 147 140 144 153 157 157 161 166 168 172 179 181 184 184 183 183 186 203 193
242 265 262 269 7 325 296 286 285 285 292 296 298 300 291 283 283 254 262 283 270 263 268 240 250 212 170 163 158 162 176 184 191 198 198 197 197 188 179 175 174 172 171 180 187 186 188 189 189 187 188 188 180 175 174 177 179 182 190 187 185 184 172 167 165 160 157 158 159 158 161 167 163 153 152 150 146 150 151 153 155 157 166 173 170 168 173 176 183 187 188 180 180 192 206 218 207
253 259 273 326 337 310 309 313 300 294 294 289 294 294 285 283 265 249 254 276 275 270 280 264 287 261 160 164 162 167 178 186 195 200 200 201 202 197 187 182 180 175 172 182 186 186 192 192 188 190 192 190 185 179 175 179 181 181 192 194 187 182 172 164 159 154 153 155 157 156 157 164 163 159 158 158 160 157 154 158 166 168 171 176 170 161 163 154 161 180 184 180 189 202 209 212 214
268 253 277 315 308 302 318 322 315 302 292 279 279 278 284 295 253 246 245 254 273 295 311 290 298 308 153 162 163 167 177 186 194 199 203 202 203 201 192 188 184 176 175 186 189 185 192 195 190 192 193 190 189 185 176 179 187 187 193 194 187 181 171 160 154 152 152 153 154 155 154 157 160 161 163 165 167 163 159 161 174 177 169 170 173 165 158 152 158 174 181 186 194 198 199 203 212
267 259 270 303 302 302 308 314 313 290 277 270 275 280 283 278 260 254 241 246 257 243 263 286 335 146 152 157 160 170 179 184 190 198 206 204 204 203 195 193 189 184 183 191 193 185 188 193 191 192 192 190 189 188 179 174 183 187 191 194 187 183 175 164 158 155 155 154 153 153 153 159 161 159 160 161 163 164 164 166 175 180 172 170 173 170 157 155 161 166 173 180 182 184 189 196 204
253 279 298 311 309 294 298 308 302 282 272 273 281 283 272 266 271 270 244 248 249 185 158 134 126 141 149 155 163 174 178 179 186 194 206 208 207 206 198 196 194 193 193 194 195 190 189 191 191 191 189 189 189 190 188 180 180 184 191 193 188 183 175 166 162 158 159 159 156 156 159 166 166 163 162 158 160 160 161 167 172 176 177 175 174 175 166 161 163 161 167 167 172 179 182 192 202
231 290 313 314 303 292 298 298 295 291 277 277 275 270 267 268 284 278 256 257 247 194 158 140 142 148 156 164 168 172 172 175 182 189 203 208 206 206 203 201 198 199 201 198 197 196 195 193 192 191 187 188 190 192 193 190 185 185 189 189 188 184 172 166 167 161 161 165 162 164 168 170 170 168 164 159 158 155 152 157 169 178 182 181 178 180 174 168 172 170 172 171 171 178 180 193 207
267 309 313 310 301 299 302 298 302 304 286 282 269 266 267 267 296 273 257 258 240 192 176 155 152 163 168 169 168 172 170 171 180 186 199 206 204 205 204 203 200 201 204 201 199 200 199 195 192 190 188 189 194 197 197 195 190 189 189 183 184 180 169 170 173 166 167 169 165 168 170 171 172 170 166 161 153 149 147 151 167 183 187 187 184 184 178 175 182 177 176 176 171 180 185 194 214
332 307 306 300 294 293 295 298 310 307 280 267 269 277 272 213 233 264 263 250 207 187 186 173 173 179 173 170 169 173 171 170 179 185 194 202 206 207 204 203 203 203 204 201 199 202 200 197 196 192 192 192 196 204 202 197 191 192 189 181 179 175 169 172 172 168 174 172 165 168 171 174 176 173 171 162 151 150 155 160 167 182 188 188 189 188 181 178 185 181 177 177 170 183 196 209 227
308 306 303 294 290 282 272 282 319 309 285 271 278 277 257 192 220 251 275 116 181 197 198 186 193 192 176 173 169 172 173 172 177 185 195 200 205 208 205 204 205 205 206 204 199 201 200 198 200 198 197 198 199 206 203 195 193 194 188 181 178 173 167 166 166 169 175 174 167 169 175 181 185 180 177 167 158 160 170 174 168 180 187 187 191 190 187 186 185 186 184 181 187 204 228 241 242
298 297 296 300 293 271 230 228 343 311 349 352 287 270 238 204 222 239 196 150 190 211 209 195 201 198 184 178 173 178 174 172 178 187 195 199 204 207 207 206 206 207 208 208 200 197 199 198 199 201 200 201 201 202 200 194 194 194 187 183 176 167 165 163 165 171 175 175 172 177 181 187 195 192 188 180 173 170 178 185 174 177 186 186 188 189 195 196 191 192 190 196 213 225 236 247 249
290 288 289 302 289 244 140 106 324 296 356 5 290 283 251 204 207 197 147 182 205 215 216 206 201 195 189 185 185 184 173 174 182 187 191 195 202 205 207 206 204 207 207 208 203 195 196 196 196 200 202 203 202 198 196 195 194 191 182 178 167 159 164 168 169 174 175 172 173 181 186 193 201 197 195 188 180 180 182 187 179 175 182 186 189 192 199 200 197 199 203 214 226 236 241 241 247
278 291 276 264 271 204 121 111 314 302 118 347 291 288 302 283 152 150 162 195 210 226 226 215 206 196 192 192 197 188 175 181 183 183 187 190 198 203 206 205 202 207 205 205 206 197 193 194 194 198 202 203 202 194 193 198 195 192 180 170 160 159 165 167 167 174 176 171 174 184 189 196 202 201 202 193 183 182 181 186 181 171 176 184 188 193 200 203 205 209 217 231 236 243 249 241 241
264 279 263 238 252 272 138 120 333 322 56 268 290 290 298 334 92 141 174 199 216 236 234 226 217 203 197 196 204 199 182 183 182 181 184 187 196 201 204 204 200 204 204 202 204 199 192 193 196 198 200 200 197 192 195 198 189 186 181 170 165 166 166 164 166 173 176 174 176 186 191 195 202 204 203 195 185 182 184 188 183 173 171 180 187 191 201 209 215 219 226 239 244 253 260 257 261
235 242 268 270 270 286 291 131 142 326 338 282 273 293 298 312 86 152 170 208 230 240 234 226 220 210 206 200 202 206 191 183 184 184 184 187 194 198 200 202 200 200 202 200 202 200 193 194 197 197 198 196 191 192 195 192 184 178 170 165 163 165 166 166 171 176 177 180 184 191 192 193 199 196 193 191 187 187 189 188 186 182 175 180 187 192 204 210 219 227 232 238 244 259 262 269 307
240 236 267 273 270 283 283 192 138 152 312 304 284 281 285 293 289 173 173 220 238 240 238 224 216 210 207 206 205 206 199 192 192 188 186 187 190 193 196 199 197 198 199 199 203 202 195 194 196 196 194 190 191 196 193 183 183 178 165 161 161 162 172 175 182 186 187 190 194 196 190 188 192 187 184 188 191 192 191 189 189 188 183 186 189 192 203 209 217 226 232 236 238 254 263 286 319
294 286 285 283 274 274 274 272 106 341 308 302 289 281 279 290 296 189 177 222 235 241 244 228 221 214 206 210 211 208 204 202 199 190 187 187 185 187 191 193 193 194 196 197 201 203 200 197 192 190 190 192 197 200 193 180 181 179 169 168 166 168 183 188 194 197 196 199 197 195 187 184 188 186 185 189 193 192 191 192 191 189 188 190 190 192 198 203 211 217 224 229 228 241 255 279 289
301 293 288 289 284 277 280 287 324 349 308 294 286 288 290 294 299 284 191 212 235 242 240 230 224 218 212 214 215 211 207 205 201 192 187 184 181 181 183 187 189 191 193 193 197 201 203 198 186 184 192 196 196 193 187 181 183 179 170 168 166 173 186 191 197 198 194 194 191 189 186 187 191 189 188 191 193 192 193 194 190 189 191 192 193 193 196 198 204 208 211 214 216 229 236 240 257
290 285 279 275 276 277 277 282 319 34 297 292 290 289 291 290 291 291 237 212 239 236 229 228 223 221 217 219 220 213 207 205 195 186 184 181 177 177 178 181 184 188 191 190 193 197 202 199 185 182 191 190 186 185 184 182 184 181 174 173 172 174 182 186 193 196 190 188 185 186 188 191 192 192 193 194 196 195 196 195 191 190 191 193 193 193 195 195 200 203 201 203 210 221 221 218 232
271 272 274 269 269 272 274 279 311 69 285 294 293 285 285 282 283 288 270 236 248 239 231 229 224 225 219 223 226 215 206 197 185 178 178 179 176 174 176 178 180 185 190 189 191 195 200 201 188 181 188 189 186 188 187 182 183 182 177 178 174 169 174 182 190 189 188 191 186 185 191 192 191 194 197 197 200 201 201 200 195 194 193 193 193 191 192 193 198 201 199 201 206 212 216 214 214
264 263 266 267 267 272 275 266 199 176 272 296 298 292 287 285 282 281 270 256 257 243 235 234 227 227 222 224 228 217 207 194 182 179 179 181 178 174 176 178 179 184 189 189 190 192 195 200 193 182 183 188 190 190 188 184 183 179 173 173 168 161 169 181 186 183 186 193 189 186 196 197 195 199 201 200 203 205 207 206 201 199 198 197 195 192 193 196 200 201 202 205 204 204 213 217 212
253 253 259 261 263 271 273 225 173 256 277 282 292 292 285 281 270 264 261 256 262 242 229 235 230 229 227 228 230 219 211 199 188 185 182 180 178 177 179 179 176 181 188 189 189 189 190 195 195 185 178 180 187 190 187 182 180 174 166 169 170 166 175 187 194 193 189 192 194 195 202 201 200 204 205 204 207 208 209 209 208 204 203 202 199 196 197 200 202 204 205 206 207 208 213 217 214
244 244 253 263 268 269 274 272 284 298 278 252 280 288 278 275 263 256 246 215 238 228 216 228 227 227 231 232 233 224 216 207 196 188 181 179 180 180 181 178 175 179 187 189 189 189 189 192 193 186 178 177 183 189 187 180 176 171 163 166 170 167 171 184 199 204 197 196 200 203 205 203 202 204 207 209 211 213 212 210 210 209 206 204 201 198 200 202 203 205 207 207 209 213 216 213 209
257 246 247 256 267 267 271 280 293 298 273 190 323 298 287 289 280 271 258 240 251 240 226 237 228 218 222 228 228 223 217 212 203 192 182 180 181 179 179 178 178 181 185 187 187 188 188 189 190 185 181 181 182 186 186 179 178 177 168 165 170 173 177 189 201 200 192 195 201 203 206 206 205 206 208 210 211 213 215 212 211 211 209 206 203 199 198 200 203 204 206 209 211 216 223 215 200
265 258 250 251 261 263 267 274 276 279 276 291 323 297 291 293 283 276 269 265 272 271 263 259 245 220 216 223 224 219 216 210 205 198 187 183 180 177 177 180 181 181 182 182 182 186 186 186 188 187 185 184 184 186 184 181 182 183 177 172 176 180 184 193 199 194 188 192 197 200 205 207 208 211 210 210 209 209 213 216 214 213 212 210 207 204 199 198 202 204 204 207 211 217 225 222 205
263 269 264 257 258 258 262 269 269 272 281 280 270 271 282 284 279 276 265 265 274 273 270 267 256 233 220 221 222 218 216 208 204 200 191 187 182 179 178 181 183 179 175 176 178 182 183 183 186 188 187 184 185 187 186 185 185 186 185 182 184 187 190 195 194 192 192 194 199 201 203 207 209 212 214 213 211 209 211 216 216 215 214 213 210 210 207 202 203 202 200 201 208 215 220 223 214
265 267 262 263 260 261 267 270 270 271 275 274 260 253 271 280 284 275 245 253 276 276 272 271 262 245 228 222 220 218 219 212 205 202 195 189 185 183 181 180 180 176 173 174 176 178 179 180 183 187 189 187 186 187 189 189 188 189 191 191 192 193 195 198 195 195 196 195 203 204 202 208 211 211 212 212 213 211 212 214 215 214 215 214 213 214 211 207 206 202 197 199 205 212 219 226 219
270 268 256 259 256 257 261 262 269 271 261 265 271 268 269 279 293 290 235 240 284 290 280 276 274 268 245 227 222 217 219 217 210 205 197 190 186 184 182 178 176 175 174 173 172 174 175 177 180 184 189 190 190 189 190 192 193 193 195 196 197 194 189 191 191 196 198 196 204 207 202 205 209 209 210 210 212 214 214 213 213 214 214 214 214 214 210 207 208 205 199 203 210 212 219 228 225
269 265 256 256 251 247 250 251 261 269 260 259 265 264 261 271 291 295 263 244 313 312 296 293 302 297 280 226 222 219 217 219 215 208 197 188 185 182 179 176 175 174 173 171 171 173 175 175 178 182 187 190 192 193 194 196 198 199 199 199 199 195 188 188 190 195 198 199 205 208 205 205 207 208 207 207 210 212 214 216 216 215 215 216 214 211 210 206 205 205 202 204 211 214 218 227 231
255 256 262 266 257 247 244 242 238 248 263 265 261 255 252 260 271 277 289 307 309 305 296 300 307 308 315 278 228 230 223 220 214 205 193 183 181 180 178 177 175 173 173 173 173 174 176 177 176 179 185 189 192 195 197 199 202 203 204 203 202 198 194 194 195 197 198 202 206 207 207 206 207 208 206 207 209 208 210 213 216 216 216 217 216 212 211 209 205 203 202 203 206 210 216 221 225
239 244 254 261 262 258 250 249 242 244 267 281 274 260 256 262 270 271 278 282 283 285 281 288 296 296 298 291 253 249 236 224 213 201 191 183 182 180 178 177 176 174 176 176 174 175 177 178 178 178 183 187 191 194 196 199 202 204 205 207 205 201 199 199 200 202 203 205 207 208 209 207 206 208 208 208 210 207 207 210 212 213 214 216 217 215 214 211 207 203 202 204 205 208 212 215 217
222 233 245 253 262 268 262 262 261 262 275 285 112 255 269 270 273 266 269 274 282 298 289 282 281 280 284 287 272 259 247 232 215 203 196 189 186 181 178 178 178 178 178 177 176 176 178 180 180 180 182 185 188 192 195 197 200 202 204 207 207 204 204 205 205 208 209 208 209 211 213 212 210 209 207 206 208 206 205 207 210 212 214 215 216 216 215 211 207 204 201 204 207 209 209 209 212
243 255 266 266 269 271 271 275 275 278 289 279 163 215 272 277 316 339 296 294 290 287 279 276 278 285 300 312 302 279 259 242 221 208 205 200 191 183 179 178 180 180 179 179 178 177 179 181 182 182 181 184 186 189 192 196 198 201 203 206 208 206 207 209 211 213 214 212 211 211 213 214 214 211 207 205 204 203 203 205 207 209 210 211 212 211 210 208 205 201 200 203 204 206 205 204 207
262 272 258 263 277 277 275 282 287 295 296 280 241 247 266 273 285 273 255 258 282 302 317 332 340 344 342 337 329 314 285 260 240 220 211 205 196 188 181 178 178 179 180 181 180 179 180 181 183 184 183 183 186 187 190 193 195 198 202 204 207 208 208 210 213 215 216 215 213 213 214 215 214 213 210 207 203 203 205 206 207 207 207 208 208 206 203 202 202 199 197 200 202 203 201 201 202
271 243 255 290 321 295 285 284 289 290 278 273 263 261 264 266 268 256 247 273 352 1 5 12 15 11 1 353 348 341 330 309 283 251 228 211 199 193 186 181 177 176 180 183 183 182 181 181 182 185 184 184 187 188 190 192 194 197 200 203 205 206 208 210 213 214 216 215 214 214 214 213 213 212 211 208 203 200 202 205 207 206 207 208 205 202 201 200 199 197 196 196 197 198 198 198 200
272 266 293 328 290 250 265 271 270 268 271 274 272 273 278 276 269 135 58 28 24 16 12 15 16 13 9 5 360 353 347 332 307 275 248 225 207 198 191 186 182 178 178 182 186 185 183 182 182 183 184 185 188 190 191 192 194 198 201 204 205 206 207 209 213 215 216 215 214 214 212 211 213 213 211 209 204 200 199 200 203 203 203 206 203 197 198 198 197 197 197 197 195 194 194 194 197
261 291 318 302 266 253 241 246 261 270 272 273 272 274 276 277 284 62 56 36 27 14 12 14 12 11 7 5 4 1 356 344 327 306 263 233 220 210 200 192 186 181 177 180 185 185 185 184 184 185 187 188 188 189 191 193 195 199 202 205 205 205 207 210 213 215 214 214 214 213 211 211 213 212 210 209 206 202 199 198 201 202 200 202 200 196 196 195 196 197 197 197 196 194 194 196 196
230 270 267 243 264 277 265 257 265 273 274 272 275 274 268 271 356 69 55 38 29 17 13 8 3 6 4 2 3 1 359 353 339 328 302 248 227 219 212 204 193 184 179 180 182 185 187 185 185 187 188 189 188 187 189 192 196 200 203 204 205 206 208 211 212 211 211 213 214 213 212 212 214 212 209 209 209 205 201 199 201 201 199 200 198 197 197 195 195 198 198 199 199 198 199 200 197
270 272 270 255 254 269 270 264 257 260 268 269 268 269 262 129 90 85 67 46 30 19 10 1 360 1 359 359 359 357 357 356 346 334 323 294 244 220 213 210 202 191 183 180 181 185 187 186 186 188 187 188 188 188 189 192 196 201 203 202 203 204 206 209 209 208 209 213 214 213 213 213 215 213 209 208 209 207 202 201 202 201 200 200 198 197 198 197 196 198 200 202 203 203 206 206 200
284 278 281 276 273 275 271 264 256 254 264 266 266 271 269 135 125 102 79 47 20 17 3 354 355 354 351 350 352 353 354 356 353 341 330 321 288 233 212 206 205 200 190 184 182 183 186 187 188 188 188 189 190 190 190 192 195 199 202 202 201 201 204 205 205 206 209 212 213 212 212 214 215 214 210 208 208 207 204 202 202 202 201 200 200 199 199 200 200 200 202 205 206 207 211 211 206
Height
803 803 801 801 799 800 797 793 805 802 801 810 804 801 797 789 790 791 791 789 789 786 782 784 784 785 789 791 790 788 787 795 800 801 807 807 803 805 804 804 805 805 806 807 808 809 810 812 813 815 816 817 818 818 819 820 820 821 821 821 821 821 821 822 823 823 824 824 825 825 826 827 827 828 829 829 830 831 832 832 832 833 834 834 835 835 836 836 836 837 837 837 837 837 838 837 838
804 803 801 801 799 801 796 792 808 808 806 812 802 797 793 787 791 793 790 788 789 786 782 783 784 785 786 786 785 787 789 791 794 797 801 803 804 805 804 805 805 806 807 808 809 810 811 813 814 816 817 818 819 819 820 820 821 822 822 822 822 822 822 823 824 824 825 825 826 826 827 827 828 829 829 830 831 832 832 833 833 834 835 836 836 837 837 837 838 838 839 839 839 839 839 839 839
804 803 801 801 798 796 794 795 808 810 811 812 801 793 789 790 791 788 786 786 787 785 784 785 787 787 787 790 789 790 794 791 791 794 798 802 802 803 805 805 806 807 808 809 810 811 812 813 815 816 817 818 819 820 821 821 822 823 823 824 824 824 824 824 825 825 826 826 827 828 828 828 829 829 830 831 832 833 833 834 834 835 836 837 837 838 838 839 839 840 841 841 840 840 840 840 840
803 803 801 799 796 795 797 802 805 807 809 807 801 793 789 791 788 786 785 785 786 785 787 789 790 787 789 796 791 790 795 794 794 794 797 801 801 803 805 805 807 807 809 810 811 812 813 814 816 817 818 819 820 821 822 822 823 823 824 824 825 825 825 825 825 826 826 827 827 828 829 829 829 830 831 831 833 833 834 835 835 836 837 838 838 839 839 839 840 841 842 842 842 842 842 841 841
803 803 801 797 798 798 800 804 804 805 805 800 799 794 788 788 787 787 786 786 785 786 789 791 793 788 788 792 789 794 799 796 796 796 797 802 803 804 805 806 807 808 810 810 812 813 813 814 816 818 819 820 821 822 823 824 824 824 824 825 825 826 826 826 826 826 827 827 828 829 829 830 830 831 832 832 833 834 835 836 836 837 838 838 839 840 840 841 841 842 842 843 843 843 842 842 842
802 801 798 796 796 797 804 808 807 804 798 794 796 792 787 786 787 789 788 787 785 785 787 790 794 791 791 790 788 795 798 797 798 798 799 802 804 805 806 806 807 809 810 811 813 814 813 815 817 819 820 822 823 823 824 825 825 826 826 826 826 826 826 826 826 827 827 828 829 829 830 830 831 832 832 833 834 835 836 836 837 838 838 839 840 840 841 841 842 843 843 844 844 844 843 843 843
801 800 797 798 798 799 809 809 805 802 795 792 793 790 787 786 787 789 791 792 790 787 788 789 789 792 795 790 791 796 797 798 798 800 801 802 804 805 806 807 808 810 811 812 814 814 815 816 818 820 821 822 823 824 825 825 826 826 827 827 827 827 827 827 827 827 828 829 829 830 831 831 832 833 833 834 835 836 836 837 838 838 839 840 841 841 842 842 843 844 844 845 845 844 844 844 844
801 799 796 803 805 804 809 805 802 800 794 791 789 789 788 787 788 791 792 793 794 791 790 790 788 795 795 788 794 799 798 799 799 802 803 803 804 805 806 807 808 810 812 813 814 814 815 817 820 821 822 823 824 825 825 826 826 827 827 827 828 827 828 828 828 828 829 829 830 831 832 832 833 833 834 835 835 836 837 838 839 839 840 841 841 842 843 844 844 844 845 845 845 845 845 845 845
799 799 799 805 807 808 808 804 802 798 794 791 788 788 787 787 788 792 793 792 792 792 792 791 790 796 795 790 796 797 797 800 801 802 802 803 804 805 806 807 808 810 812 812 813 815 816 819 820 822 822 823 823 824 825 826 827 827 828 828 828 828 828 828 829 829 830 830 831 832 833 833 834 834 835 835 836 837 838 839 839 840 840 841 842 842 843 844 845 845 845 846 846 846 846 846 846
798 799 802 806 807 811 809 804 801 797 794 790 788 787 787 788 789 792 793 793 791 792 792 789 791 794 793 792 795 796 797 800 800 802 802 803 804 805 806 807 808 810 811 812 813 815 817 819 818 819 820 821 822 823 824 826 827 827 828 828 828 829 829 829 829 830 830 831 832 833 833 834 834 835 835 836 837 837 838 839 840 840 841 842 842 843 844 844 845 845 846 846 846 846 847 847 846
801 800 800 808 811 812 808 803 801 796 792 789 788 786 786 787 790 792 792 792 790 792 791 790 793 792 791 791 793 797 798 800 799 801 802 803 804 805 806 807 808 809 811 811 812 814 816 817 817 818 819 820 821 823 824 825 826 828 828 829 829 829 829 829 829 830 831 832 832 833 834 834 835 835 836 836 837 838 839 839 840 841 841 842 842 843 844 845 845 845 846 846 847 847 847 847 847
804 803 803 811 810 807 804 803 802 797 792 792 791 785 783 786 791 793 792 793 790 791 789 790 792 791 794 792 792 797 798 799 799 801 802 803 805 806 807 807 808 809 810 810 812 814 815 816 817 818 818 819 820 822 824 825 826 828 829 829 829 829 829 829 830 831 832 832 833 833 834 834 835 836 836 837 838 838 839 840 840 841 842 843 843 844 844 845 846 846 847 847 848 848 848 848 848
802 803 805 810 805 804 804 803 801 799 795 791 789 784 783 787 791 791 790 791 790 794 789 785 788 790 794 791 792 796 797 799 800 801 802 803 805 806 807 808 809 809 809 810 811 813 815 817 818 818 819 819 820 822 823 825 827 828 829 829 829 829 829 830 830 831 832 833 833 834 835 835 836 836 837 837 838 839 839 840 841 841 842 843 843 844 845 846 846 847 847 848 848 849 849 849 848
799 799 804 808 805 805 804 802 799 801 797 788 787 784 785 787 788 786 788 792 790 790 787 783 786 791 794 791 793 795 796 799 800 802 802 803 805 806 807 807 809 809 809 810 812 813 814 816 817 818 819 820 820 821 822 823 826 828 829 829 829 830 830 830 830 831 832 833 834 834 835 836 836 837 837 838 838 839 840 840 841 842 842 843 844 844 845 846 847 848 848 849 849 849 850 849 849
798 797 803 807 806 805 803 802 800 802 797 788 788 786 787 784 783 786 787 792 789 784 785 785 786 793 795 794 796 796 797 800 801 802 803 804 805 806 807 807 809 809 810 811 812 813 814 815 816 818 819 819 819 820 821 822 826 828 829 829 829 829 830 830 830 831 832 833 834 835 836 836 837 837 837 838 839 840 840 841 841 842 843 843 844 845 846 847 848 848 849 849 850 850 850 850 850
796 797 805 809 809 808 803 801 801 804 796 788 788 787 791 784 780 787 784 786 788 783 786 788 786 790 791 793 797 797 798 800 801 803 803 804 805 806 806 807 809 809 810 811 812 813 814 815 816 818 819 819 820 821 823 824 826 827 828 828 827 828 829 830 830 831 832 833 834 835 836 836 837 837 838 838 839 840 840 841 842 842 843 844 845 845 846 847 848 849 849 850 850 851 851 851 850
797 801 809 811 810 809 803 801 801 802 796 789 787 787 793 788 781 784 781 783 788 786 786 786 785 787 789 793 796 796 798 800 802 803 803 804 804 805 806 807 808 809 810 811 812 812 814 815 816 817 818 819 821 822 824 824 826 827 827 827 828 828 828 830 830 831 832 833 834 834 835 836 837 837 838 839 839 840 841 841 842 843 844 845 845 846 847 848 848 849 850 850 851 851 851 851 850
801 805 811 812 808 804 799 798 796 795 795 790 786 786 791 791 784 782 784 787 787 786 786 785 785 786 789 793 795 796 798 800 801 802 802 802 803 804 805 806 807 809 810 810 811 812 813 814 815 816 817 819 821 822 823 824 826 827 827 827 828 829 828 830 830 831 832 833 833 834 835 836 837 838 838 839 840 840 841 841 842 843 844 845 846 846 847 848 849 849 850 850 851 851 851 851 851
803 804 809 807 800 796 792 792 791 791 793 788 785 784 787 788 784 782 789 791 786 788 785 783 787 788 790 792 793 795 796 798 800 800 801 801 802 802 803 805 806 807 809 809 810 810 812 813 814 815 816 818 820 821 822 823 825 826 826 827 828 829 829 829 830 830 831 833 834 835 836 836 837 838 838 839 840 841 841 842 843 843 844 845 846 847 847 848 848 849 849 850 850 851 851 851 850
800 802 809 800 792 792 788 787 788 787 787 788 786 782 784 784 780 782 790 790 786 787 783 781 785 785 788 790 791 794 795 797 799 799 800 800 800 800 802 803 805 806 808 808 808 809 810 811 812 814 816 817 818 820 821 822 823 825 825 826 827 828 829 828 829 830 831 833 834 835 836 836 837 837 838 839 839 840 841 841 843 843 844 845 846 847 847 847 847 848 848 849 850 850 850 850 849
799 801 805 794 789 794 788 784 785 785 785 787 786 784 785 779 777 781 786 792 788 781 777 778 780 778 784 788 789 792 793 795 797 799 799 799 799 800 801 802 804 806 807 808 808 809 810 811 812 813 815 815 817 818 819 820 821 824 824 825 825 826 827 828 828 829 830 832 833 835 835 836 837 838 838 839 840 840 841 842 842 843 844 845 846 846 847 847 847 848 848 848 849 849 849 849 849
801 798 796 791 791 794 788 783 784 785 785 787 787 786 783 776 778 780 783 791 786 776 773 774 774 775 780 784 787 789 791 793 795 797 798 798 799 799 801 802 804 805 806 807 807 808 810 811 813 814 815 815 816 817 818 819 820 822 822 823 823 824 825 826 827 829 830 832 833 834 835 836 837 838 838 839 840 840 841 842 842 843 844 845 846 846 847 847 847 847 848 848 848 848 849 849 849
803 796 790 790 790 792 787 782 783 784 786 787 785 781 778 779 781 776 778 782 775 771 772 772 773 773 777 781 785 788 789 791 792 795 796 797 798 799 800 801 803 804 805 806 806 808 810 811 813 815 815 814 815 816 817 818 819 820 821 821 821 823 824 825 827 828 830 831 833 834 835 836 837 838 839 839 840 840 841 842 842 843 844 845 845 846 846 846 847 847 847 847 847 847 848 848 848
803 799 791 790 789 789 785 781 781 781 784 783 779 779 779 783 781 774 775 772 767 769 770 771 773 773 777 781 784 786 786 789 791 793 795 796 798 798 800 801 802 803 803 804 805 807 809 811 812 813 814 814 814 815 816 816 817 818 819 819 820 822 823 824 826 828 830 831 832 834 835 836 837 838 839 839 840 840 841 841 842 842 843 844 845 845 845 846 846 846 847 846 846 847 847 847 847
799 798 792 790 788 785 781 779 779 778 780 778 778 781 780 778 776 775 774 768 764 767 769 770 773 775 778 781 783 784 785 787 789 792 794 795 797 798 800 801 802 803 803 803 804 805 807 809 810 811 812 813 813 814 815 815 815 816 818 818 820 821 822 824 825 826 829 831 832 833 835 836 837 838 838 839 840 840 840 841 841 842 843 843 844 844 845 845 846 846 846 846 846 846 846 847 847
796 796 792 790 788 783 780 778 777 778 778 777 781 782 776 773 777 777 769 764 763 765 770 772 774 777 779 780 782 783 784 786 788 790 793 794 796 798 799 800 801 802 802 803 804 804 805 806 807 809 810 812 813 813 814 814 813 814 816 818 820 821 822 823 824 826 828 830 832 833 834 836 836 838 838 839 839 839 840 840 841 842 842 843 843 844 844 845 845 845 845 845 845 845 846 846 846
793 793 791 789 785 780 779 779 777 777 777 778 782 781 774 772 781 779 763 758 762 766 771 772 774 777 778 779 780 782 783 784 787 789 791 793 795 796 798 799 800 801 802 802 803 804 804 805 806 808 809 811 812 812 813 813 812 813 815 817 820 821 822 822 824 825 827 830 831 833 834 835 836 837 838 839 839 839 840 840 841 841 842 842 843 843 844 844 844 845 845 845 845 845 846 846 846
791 791 790 786 781 777 775 778 778 776 778 778 778 778 774 776 781 775 763 760 763 768 771 772 773 775 776 778 779 780 781 783 786 788 790 792 793 795 796 798 799 800 801 801 803 804 804 805 806 807 809 810 811 812 812 812 812 813 814 816 818 819 820 821 823 825 827 829 831 832 834 835 836 837 837 838 838 839 839 840 840 841 841 842 842 843 843 844 844 845 845 845 845 846 846 845 845
789 788 792 787 779 777 774 777 778 777 779 776 776 780 777 778 777 765 762 764 764 767 770 771 772 773 775 777 778 779 780 782 784 786 788 789 791 793 795 796 798 799 800 801 802 803 804 805 806 807 808 809 810 811 812 812 812 812 814 815 816 818 819 820 822 824 826 829 830 832 833 835 836 836 837 837 838 838 839 839 840 840 841 841 842 842 843 843 844 844 845 845 845 845 845 845 844
789 785 790 791 785 780 774 776 777 777 780 774 778 788 777 768 766 760 762 764 765 768 768 769 770 771 773 775 776 777 777 780 781 783 786 787 790 792 793 795 796 798 799 800 801 802 804 805 806 807 808 809 810 811 811 812 812 813 814 815 816 817 820 822 823 824 826 828 830 831 833 834 835 836 836 837 837 838 838 838 839 839 840 840 841 842 842 843 844 844 845 845 845 845 844 843 843
788 788 788 789 792 784 772 774 777 778 779 773 780 790 775 760 760 760 762 763 765 768 767 767 768 770 772 773 774 774 774 777 778 781 784 786 788 790 792 793 795 797 797 798 800 801 803 804 805 806 807 808 809 810 811 812 813 814 815 816 818 819 821 822 823 824 826 828 829 831 832 833 834 835 835 836 836 836 837 837 838 839 839 840 841 841 842 842 843 844 845 845 845 844 843 842 842
786 795 793 785 788 783 771 772 776 779 778 772 780 788 775 761 760 760 760 761 764 766 765 765 766 768 770 771 772 772 772 773 776 779 782 784 787 788 790 792 794 795 796 797 799 800 801 802 804 805 806 807 809 810 811 812 814 816 818 819 820 820 821 822 823 824 825 827 829 830 831 832 833 833 834 834 835 835 836 837 837 838 838 839 840 840 841 842 843 844 844 845 844 844 843 841 842
784 793 797 788 787 786 778 773 772 776 777 773 779 785 777 764 759 759 759 761 763 764 764 763 764 765 767 769 770 770 770 771 774 777 780 782 784 786 789 790 792 794 795 797 798 799 800 801 802 804 806 807 808 810 811 812 814 817 819 820 821 821 821 822 823 824 825 827 828 829 830 831 831 832 832 833 833 834 835 836 836 837 837 838 839 840 841 842 843 844 844 844 844 844 842 841 842
786 787 792 789 787 789 785 778 771 772 777 776 774 777 775 763 754 756 758 759 761 763 762 760 760 762 764 766 767 768 769 770 771 773 777 780 782 785 787 789 791 793 794 796 796 797 798 799 801 804 806 807 808 808 810 812 814 816 817 818 820 821 821 822 823 824 825 827 827 828 829 829 830 830 831 832 832 833 834 835 835 836 837 838 838 839 840 841 842 843 843 843 843 843 842 841 842
792 793 794 791 786 786 785 779 771 772 777 776 774 773 769 760 751 753 756 757 760 761 759 758 758 759 761 763 764 765 766 767 768 770 774 777 780 783 785 787 790 792 793 794 795 796 797 798 800 804 805 806 807 808 809 811 813 815 815 816 818 820 822 822 823 824 825 826 826 827 827 828 829 829 830 831 831 832 833 834 835 835 836 837 837 838 839 839 840 841 842 842 842 843 842 842 842
794 795 795 795 791 786 781 774 768 772 779 776 772 771 767 761 754 750 753 755 758 759 757 757 757 756 758 760 761 762 763 764 763 766 770 774 777 781 783 786 788 790 792 793 794 795 796 797 800 803 803 804 806 807 809 810 812 813 814 815 816 819 821 822 823 824 824 825 825 826 826 827 828 828 829 830 831 832 832 833 833 834 835 835 836 837 837 838 839 840 840 841 841 841 842 842 842
794 795 794 793 791 786 778 772 767 771 781 776 767 769 766 762 755 748 748 753 756 757 757 757 756 755 756 757 757 758 760 760 760 764 768 772 775 778 782 784 786 789 790 792 793 794 795 796 799 801 802 803 805 806 807 808 810 812 813 814 815 817 820 821 822 823 823 824 824 825 826 826 827 828 829 829 830 831 832 832 832 833 834 834 835 835 836 837 837 838 839 839 840 840 840 841 840
793 795 793 790 787 783 775 770 768 770 780 776 765 767 766 758 753 745 744 751 753 752 754 755 753 753 753 753 754 754 756 756 758 763 767 770 773 776 779 782 784 786 788 790 791 793 794 795 798 800 801 802 803 804 805 807 809 810 811 813 815 817 819 821 821 822 823 823 824 824 825 826 827 827 828 829 829 830 831 831 831 832 832 833 833 834 835 835 836 837 838 838 838 839 839 839 839
792 791 792 791 784 779 773 768 769 772 778 776 767 767 765 754 750 745 742 745 745 744 747 749 750 751 751 750 750 751 753 755 757 761 764 767 770 774 777 779 781 784 786 789 790 791 793 795 797 798 799 800 801 803 804 806 807 808 810 812 814 816 818 820 821 821 822 823 823 824 824 825 826 827 827 828 828 829 830 830 830 831 831 832 832 833 833 834 835 836 837 837 837 837 838 837 837
790 789 790 789 780 780 780 771 770 771 771 772 769 768 763 753 748 744 738 738 739 740 742 744 745 747 747 745 745 747 750 753 756 759 760 763 767 770 773 776 779 782 784 786 788 790 792 793 795 796 798 799 800 801 803 805 806 807 809 811 813 815 816 818 820 820 820 821 822 822 823 824 825 826 826 827 827 828 828 829 829 830 830 830 831 832 832 833 834 834 835 836 836 836 836 835 835
785 783 786 785 778 780 779 771 769 768 764 765 769 772 764 751 749 745 736 736 739 739 742 744 743 743 743 742 742 743 745 748 752 755 757 760 763 766 769 773 775 778 781 784 786 788 789 791 793 794 796 798 799 800 802 804 806 807 808 809 811 813 815 817 819 819 819 820 820 821 822 822 823 824 825 826 826 827 827 827 828 828 829 829 830 830 831 832 833 833 834 834 834 835 834 834 834
782 777 776 778 777 776 774 771 774 779 775 765 769 785 775 752 749 749 740 739 739 736 739 742 741 741 743 742 741 741 741 743 746 750 753 756 759 763 766 770 772 775 778 781 783 785 787 789 791 793 794 796 798 799 801 804 806 807 806 807 809 811 813 816 817 818 818 818 819 820 821 821 822 823 824 825 825 825 826 826 826 827 828 828 829 829 830 831 831 832 832 832 833 833 833 832 833
786 773 767 772 774 774 774 774 778 786 781 764 766 786 784 761 753 749 742 742 740 736 737 736 735 737 740 739 738 738 738 740 743 745 748 752 755 759 763 766 769 772 775 778 781 784 786 788 790 791 792 794 796 798 800 803 805 805 805 806 807 809 811 813 815 816 816 817 818 819 819 820 821 821 822 823 823 824 824 825 825 826 826 827 827 828 828 829 830 831 831 832 832 833 833 832 832
784 768 766 772 771 773 774 774 778 777 771 765 762 773 782 773 757 744 741 746 744 739 738 733 730 731 733 734 734 734 735 736 739 742 744 748 751 754 758 762 765 768 772 776 779 781 783 786 788 790 791 792 794 796 798 800 802 803 804 805 806 808 809 811 813 813 814 815 816 817 817 818 819 820 821 821 822 822 823 823 824 824 825 825 826 827 827 828 829 830 830 831 831 832 832 832 832
774 762 766 770 769 772 771 772 774 768 772 780 766 763 780 776 753 738 740 748 749 742 737 731 727 725 726 729 730 731 731 731 734 737 740 743 746 750 754 757 762 765 769 772 775 778 781 784 786 788 790 791 793 794 796 798 800 801 803 804 805 806 808 809 810 811 813 814 815 816 816 817 818 818 819 820 820 821 822 822 822 823 823 824 825 826 826 827 828 829 829 829 830 831 831 831 832
766 762 767 767 767 769 768 771 771 767 779 788 770 761 777 776 753 741 744 750 750 741 733 727 723 721 722 725 728 729 729 730 730 732 735 739 742 747 751 755 759 762 765 769 772 776 779 781 784 787 788 790 791 793 795 796 798 800 801 803 804 805 807 808 809 811 812 812 814 814 815 815 816 817 818 818 819 820 820 821 821 821 822 823 823 824 825 826 827 828 828 828 829 829 830 830 830
763 766 769 767 765 762 765 766 766 778 787 780 765 756 767 777 761 745 744 745 743 739 733 727 723 721 721 723 726 727 727 728 728 729 732 736 741 745 749 753 756 760 763 767 770 773 776 778 781 784 787 789 790 792 794 795 797 798 800 801 802 804 805 807 808 809 810 811 812 812 813 814 815 816 817 817 818 819 819 820 820 821 821 821 822 823 823 824 825 826 827 827 828 828 829 829 829
766 770 770 772 770 762 767 767 769 792 793 767 752 748 760 776 763 743 739 736 734 737 736 731 728 724 722 723 724 724 725 726 726 729 731 734 739 742 746 750 753 757 760 763 766 769 772 775 777 781 784 786 789 790 792 794 796 797 798 800 801 802 804 805 806 807 807 808 809 810 811 813 814 814 815 815 816 817 818 818 819 819 820 820 820 821 822 822 823 824 825 826 827 828 828 829 829
770 771 772 783 784 778 784 782 777 787 778 754 748 753 763 767 752 740 738 733 730 731 731 730 730 727 724 724 725 724 724 724 725 727 729 732 735 738 742 746 749 753 756 759 763 766 769 772 774 777 780 783 786 788 790 792 794 795 797 798 799 801 802 803 804 804 805 806 807 809 810 811 811 812 813 814 814 815 816 817 817 818 818 819 819 820 821 821 822 823 824 825 826 827 827 827 828
769 769 772 783 790 796 802 792 782 781 767 750 751 763 771 762 744 736 735 731 727 726 726 727 726 726 724 723 724 724 723 723 724 725 726 728 730 733 736 741 745 748 752 756 759 762 765 768 771 773 776 779 782 785 787 790 791 793 795 796 797 799 800 801 801 802 803 804 806 807 808 808 809 810 811 812 812 813 814 814 815 816 816 817 818 819 820 820 821 822 823 824 825 826 826 827 827
762 757 762 773 779 791 800 791 786 783 770 760 762 771 774 762 744 734 732 729 726 726 726 725 725 724 724 725 725 725 724 723 722 722 724 724 725 728 732 736 741 744 748 752 755 758 761 764 767 770 773 776 779 782 784 787 789 791 793 794 795 796 797 798 799 800 801 803 804 805 806 806 807 808 808 809 810 811 812 812 813 814 814 815 816 817 818 819 820 821 822 823 824 825 825 826 826
761 755 763 771 766 770 781 779 776 778 780 774 770 767 757 745 735 727 729 731 728 729 728 727 730 729 729 730 727 726 725 723 721 721 721 722 723 726 728 731 736 740 745 748 751 754 756 760 763 766 769 772 775 778 781 783 786 788 790 791 792 793 795 796 797 798 800 801 802 803 803 804 805 806 807 807 808 809 811 811 812 812 813 814 815 816 817 818 819 820 821 822 823 823 824 825 825
765 763 768 764 754 761 777 780 773 779 791 781 766 762 749 740 737 727 726 734 736 737 735 734 737 736 735 735 731 728 726 725 724 721 720 721 722 724 726 728 731 735 740 744 747 749 752 755 759 762 765 768 772 775 777 780 783 785 786 788 789 791 792 794 795 796 797 798 799 800 801 802 803 804 805 806 806 807 809 810 811 811 812 813 814 815 816 817 818 819 819 820 821 821 822 823 824
766 769 765 757 755 760 773 789 788 788 794 778 762 764 758 754 750 736 733 744 746 744 742 740 740 739 739 738 735 732 729 727 725 721 721 721 721 723 724 726 728 730 734 739 743 746 749 751 754 758 761 764 767 771 774 777 779 781 783 784 786 788 790 792 793 794 795 796 797 798 799 800 801 802 803 804 805 805 807 808 809 810 811 811 812 814 815 816 817 818 818 819 819 820 821 822 822
762 764 759 762 774 774 773 789 796 793 794 781 766 763 759 755 752 746 748 753 751 749 746 744 743 742 741 739 737 734 731 729 726 722 721 721 721 723 724 725 726 728 731 735 740 744 746 749 751 754 757 760 763 767 770 773 776 778 780 781 783 786 788 789 790 791 793 794 795 796 797 798 799 800 801 802 803 804 805 806 807 808 809 810 811 812 814 815 816 817 817 818 818 819 819 819 819
758 759 756 760 773 776 772 777 780 784 790 785 776 768 758 750 749 752 756 754 751 752 750 748 747 744 742 740 738 737 734 732 728 724 723 721 721 723 724 726 726 727 730 733 737 741 743 746 749 751 755 757 761 764 767 770 772 774 776 778 781 783 784 786 787 788 790 791 792 793 794 796 797 798 799 800 801 802 803 804 805 806 807 808 809 810 811 813 814 815 816 816 817 817 817 817 817
766 767 765 764 766 767 768 768 764 770 782 784 784 777 757 746 748 750 752 752 749 750 751 750 747 744 743 741 739 739 736 734 731 727 724 722 722 722 724 726 727 728 729 731 734 738 741 744 746 748 752 755 758 760 763 766 768 770 772 775 777 779 781 783 784 786 787 788 790 791 792 794 795 796 797 798 799 800 801 802 803 804 805 806 807 808 810 811 812 813 814 814 815 815 815 815 816
773 773 770 769 771 772 780 779 762 759 770 773 778 779 757 744 747 747 747 748 745 745 748 749 747 745 744 741 739 738 736 735 733 729 726 724 723 723 723 725 726 728 728 729 732 735 738 741 743 746 748 751 754 757 759 762 764 767 769 771 774 776 778 780 781 783 784 785 787 788 790 791 792 793 794 796 797 798 799 800 801 802 803 804 805 806 808 809 810 811 811 812 813 814 814 814 815